Home   Weather   Langevåg   Past weeks

Flag for Norway Past Weather in Langevåg, Norway — Yesterday and Last 2 Weeks

Now
37 °F

Partly cloudy.


Feels Like: 30 °F
Forecast: 31 / 39 °F
Wind: 10 mph from Southeast

Location: Alesund / Vigra

Current Time: Nov 19, 2017 at 5:32:57 pm

Latest Report: Nov 19, 2017 at 4:50 pm


Visibility: N/A

Pressure: 29.74 "Hg

Humidity: 100%

Dew Point: 37 °F

Location of LangevågLocation

Past Weather in Langevåg — Graph

°F

Langevåg Temperature Yesterday

Maximum temperature yesterday: 41 °F (at 12:20 am)
Minimum temperature yesterday: 34 °F (at 5:20 pm)
Average temperature yesterday: 38 °F

High & Low Weather Summary for the Past Weeks

 TemperatureHumidityPressure
High55 °F (Nov 7, 2:50 pm)100% (Nov 5, 10:50 am)29.98 "Hg (Nov 5, 10:50 am)
Low34 °F (Nov 13, 9:50 am)47% (Nov 8, 10:50 pm)29.09 "Hg (Nov 18, 7:50 am)
Average43 °F79%29.58 "Hg
* Reported Nov 4 4:20 pm — Nov 19 4:20 pm, Langevåg. Weather by CustomWeather, © 2017

Note: Actual official high and low records may vary slightly from our data, if they occured in-between our weather recording intervals... More about our weather records

Advertising

Langevåg Weather History for the Previous 24 Hours

Scroll right to see more
 ConditionsComfort  
Time TempWeatherWind HumidityBarometerVisibility
4:20 pm
Sun, Nov 19
37 °FPartly cloudy.9 mph100%29.74 "HgN/A
3:50 pm37 °FPassing clouds.7 mph100%29.74 "HgN/A
3:20 pm37 °FLight rain. Broken clouds.9 mph100%29.74 "HgN/A
2:50 pm37 °FDrizzle. Broken clouds.8 mph100%29.74 "HgN/A
2:20 pm39 °FBroken clouds.10 mph93%29.74 "HgN/A
1:50 pm39 °FScattered showers. Broken clouds.6 mph93%29.74 "HgN/A
1:20 pm39 °FScattered showers. Broken clouds.8 mph93%29.71 "HgN/A
12:50 pm37 °FBroken clouds.8 mph100%29.74 "HgN/A
12:20 pm37 °FLight rain. Broken clouds.8 mph100%29.71 "HgN/A
11:50 am37 °FScattered clouds.9 mph100%29.71 "HgN/A
11:20 am37 °FScattered clouds.8 mph100%29.71 "HgN/A
10:50 am37 °FScattered showers. Broken clouds.8 mph100%29.71 "HgN/A
10:20 am37 °FSprinkles. Broken clouds.6 mph100%29.71 "HgN/A
9:50 am37 °FScattered showers. Scattered clouds.5 mph100%29.68 "HgN/A
9:20 am37 °FScattered showers. Broken clouds.8 mph100%29.68 "HgN/A
8:50 am37 °FSprinkles. Partly cloudy.7 mph100%29.68 "HgN/A
8:20 am37 °FSprinkles. Partly cloudy.5 mph100%29.68 "HgN/A
7:50 am37 °FSprinkles. Partly cloudy.6 mph100%29.68 "HgN/A
7:20 am37 °FPartly cloudy.6 mph100%29.65 "HgN/A
6:50 am37 °FPassing clouds.7 mph100%29.65 "HgN/A
6:20 am37 °FPassing clouds.6 mph100%29.65 "HgN/A
5:50 am37 °FLight rain. Overcast.5 mph100%29.65 "HgN/A
5:20 am37 °FDrizzle. Mostly cloudy.7 mph100%29.65 "HgN/A
4:50 am37 °FPassing clouds.9 mph100%29.62 "HgN/A
4:20 am36 °FPartly cloudy.8 mph100%29.62 "HgN/A
3:50 am37 °FPassing clouds.9 mph93%29.62 "HgN/A
3:20 am37 °FMostly cloudy.6 mph100%29.62 "HgN/A
2:50 am37 °FMostly cloudy.10 mph100%29.59 "HgN/A
2:20 am37 °FPassing clouds.7 mph100%29.59 "HgN/A
1:50 am39 °FPassing clouds.5 mph87%29.56 "HgN/A
1:20 am36 °FLight rain. Partly cloudy.7 mph100%29.56 "HgN/A
12:50 am36 °FPartly cloudy.3 mph93%29.56 "HgN/A
12:20 am37 °FPassing clouds.6 mph87%29.53 "HgN/A
11:50 pm
Sat, Nov 18
39 °FLight rain. Partly cloudy.7 mph87%29.53 "HgN/A
11:20 pm36 °FPartly cloudy.6 mph93%29.50 "HgN/A
10:50 pm37 °FPassing clouds.6 mph87%29.50 "HgN/A
10:20 pm39 °FPassing clouds.10 mph81%29.50 "HgN/A
9:50 pm39 °FLight rain. Passing clouds.10 mph81%29.47 "HgN/A
9:20 pm41 °FPassing clouds.13 mph70%29.45 "HgN/A
8:50 pm39 °FClear.15 mph81%29.45 "Hg10 mi
8:20 pm39 °FClear.16 mph75%29.42 "Hg10 mi
7:50 pm39 °FClear.18 mph75%29.42 "Hg10 mi
7:20 pm39 °FClear.15 mph70%29.39 "Hg10 mi
6:50 pm39 °FClear.15 mph75%29.36 "Hg10 mi
6:20 pm37 °FClear.17 mph87%29.33 "Hg10 mi
5:50 pm34 °FPassing clouds.2 mph100%29.30 "HgN/A
5:20 pm34 °FPassing clouds.2 mph100%29.30 "HgN/A
Weather by CustomWeather, © 2017

See weather overview